Wind_Speed
12 11 12 12 12 12 12 12 12 13 13 13 14 14 13 13 13 13 14 14 15 15 16 16 17 18 19 21 22 22 22 22 21 18 18 19 16 16 15 12 9 9 9 9 10 11 12 13 13 15 12 9 8 8 10 10 7 6 6 7 7 7 9 11 9 4 3 3 4 0 6 8 8 10 6 4 6 7 9 9 16 17 16 18 20 23 22 20
12 12 12 12 12 12 12 12 13 14 15 15 15 15 14 13 13 13 14 14 15 15 16 17 17 18 19 21 22 20 21 23 22 20 24 23 16 17 17 16 14 10 10 12 13 14 12 11 13 13 10 8 7 8 10 9 8 7 6 7 8 8 11 11 5 4 6 4 4 2 4 7 6 11 7 7 10 8 8 10 15 15 16 19 21 21 20 18
12 12 12 12 12 12 12 13 14 15 16 16 15 15 14 13 13 13 13 13 14 14 15 16 17 18 18 20 21 18 20 22 19 20 25 21 17 21 19 17 15 12 13 15 15 14 13 12 13 12 10 8 7 10 10 8 8 8 7 7 9 11 14 10 1 6 8 4 1 1 6 4 3 7 9 11 10 9 9 10 12 13 16 16 16 18 18 16
13 12 12 12 12 12 13 14 15 16 16 15 15 14 14 13 13 13 13 14 14 14 16 16 17 18 18 20 19 17 18 17 12 9 12 14 16 21 22 19 16 14 14 17 17 15 15 14 13 12 10 9 8 10 10 9 7 7 8 8 10 12 14 8 1 0 3 3 5 1 5 6 4 2 6 12 9 7 10 12 15 16 17 16 15 15 16 14
13 13 12 12 12 13 14 15 15 16 16 15 15 14 14 13 13 13 13 13 13 14 15 16 17 17 18 20 17 15 13 9 1 6 6 11 15 18 23 22 19 17 15 17 17 17 17 16 14 12 9 8 9 10 9 11 7 7 10 12 15 12 11 5 2 6 4 2 5 1 5 5 6 3 6 10 7 2 1 8 17 18 16 16 14 14 14 12
13 13 13 13 13 14 15 16 16 16 16 16 16 14 13 14 13 13 13 13 13 14 15 16 17 17 18 19 16 13 9 3 5 10 8 9 12 13 18 20 21 20 16 16 16 16 16 15 13 11 9 9 11 11 9 11 10 8 9 13 18 15 11 6 3 5 4 4 8 5 3 3 4 7 9 7 5 12 14 15 20 17 15 16 13 13 12 11
13 13 13 13 14 15 15 16 17 17 17 16 16 14 13 13 13 13 12 13 13 14 14 15 16 17 18 18 15 11 9 9 4 4 6 5 8 8 9 13 18 20 17 17 17 14 14 14 14 11 9 10 11 13 11 12 12 10 9 11 16 15 11 8 3 2 3 7 11 5 4 3 8 8 10 5 9 18 18 16 18 16 16 16 12 11 10 10
13 13 13 14 14 15 16 17 17 17 16 16 16 15 14 13 13 13 12 12 13 14 14 14 15 15 16 15 11 8 10 17 17 7 3 4 8 7 4 7 13 18 18 18 18 15 14 15 15 11 10 11 11 13 12 11 12 13 12 12 12 12 12 9 4 2 6 10 9 4 3 9 11 8 9 7 11 17 18 16 17 16 16 15 12 11 9 8
13 13 14 14 15 15 16 17 17 16 16 16 15 15 14 14 13 12 12 12 12 14 14 14 15 14 14 11 9 8 9 19 21 12 6 5 10 9 6 8 13 16 18 20 20 18 14 13 15 13 11 12 12 13 13 11 10 12 13 13 13 11 11 12 9 6 7 8 8 7 8 11 10 7 7 9 10 14 17 16 16 16 16 14 12 11 9 9
14 14 14 14 15 16 17 17 17 16 16 15 14 14 14 14 13 12 12 12 13 13 13 13 14 14 13 11 9 9 9 16 20 17 14 9 9 10 9 12 14 16 18 19 20 20 16 13 14 13 12 12 12 13 13 11 9 11 14 15 16 13 9 11 12 9 8 8 10 11 11 12 8 6 7 11 10 12 15 15 16 15 15 14 11 9 9 8
14 14 14 14 15 16 16 17 16 15 15 14 13 13 13 14 14 13 12 12 13 13 12 12 13 13 14 12 10 9 7 11 13 13 16 12 9 11 12 14 15 16 18 18 20 21 19 18 14 11 9 10 11 13 14 12 11 13 12 12 16 16 10 11 11 10 10 9 12 13 13 12 9 8 10 12 11 11 14 14 15 15 14 13 10 9 8 7
15 15 15 15 15 16 16 16 15 15 14 14 13 13 14 14 14 13 12 12 12 12 12 12 11 11 13 12 11 15 16 14 10 9 11 11 12 15 14 14 16 17 17 17 19 22 22 21 18 13 9 9 11 11 10 12 14 13 9 8 14 15 13 13 12 12 12 10 13 12 12 12 10 13 13 14 13 12 14 12 13 14 14 13 10 7 8 6
15 15 16 16 16 16 16 16 15 15 14 13 14 14 15 15 14 13 13 12 12 12 13 12 11 12 12 9 11 20 27 24 20 19 12 9 11 16 16 16 17 18 18 18 18 21 23 22 20 17 13 11 10 8 7 9 12 13 10 8 10 11 13 15 11 13 14 11 14 12 10 10 12 18 15 14 14 13 13 11 11 14 13 12 10 7 8 6
16 16 16 16 16 16 16 16 15 14 13 13 14 15 16 16 16 15 15 14 14 14 14 13 11 11 11 10 15 23 29 29 27 23 16 12 13 14 16 17 17 17 17 18 19 20 22 22 21 15 13 13 10 9 9 8 9 11 11 9 8 8 10 15 13 14 15 11 15 14 8 7 12 18 13 13 13 13 12 10 9 13 12 10 8 8 8 6
16 16 16 16 16 16 16 15 14 13 13 14 15 17 18 19 19 18 17 16 15 14 13 13 12 11 9 11 17 20 25 29 30 26 19 17 17 14 15 17 17 16 15 17 18 18 20 22 18 12 12 14 12 12 10 8 8 9 10 9 9 9 8 15 17 15 14 11 16 16 8 8 13 15 14 13 11 12 13 12 13 12 13 11 6 7 6 5
16 17 16 15 15 15 15 14 13 13 14 15 16 18 21 23 22 19 17 16 15 13 11 12 14 14 8 9 13 16 20 25 27 27 23 21 20 17 16 17 17 18 17 17 17 18 19 18 14 11 12 12 11 11 9 8 8 9 10 9 10 11 10 12 17 17 17 14 16 16 11 9 12 15 15 13 12 12 13 14 14 11 14 13 8 7 5 5
16 16 16 15 15 15 14 13 13 14 15 16 18 21 23 22 20 18 17 15 14 12 13 14 14 13 10 12 14 15 19 22 23 27 27 24 22 20 18 15 15 17 16 16 18 17 16 13 10 11 11 9 10 10 9 9 9 9 9 9 11 13 12 10 16 18 19 17 15 17 15 10 10 18 17 14 13 12 12 15 13 11 12 10 8 8 8 8
15 15 16 15 15 15 14 13 13 14 15 16 19 21 20 18 15 15 15 12 10 10 13 14 12 8 8 14 18 18 19 21 24 26 26 25 24 22 20 15 13 14 14 13 15 14 12 11 10 9 9 10 12 11 10 10 10 10 10 9 10 12 14 12 13 17 20 20 16 17 17 8 6 15 15 14 14 12 11 15 12 10 12 11 10 9 8 8
15 15 15 15 15 15 14 13 12 13 15 16 18 19 19 16 13 15 14 11 9 8 8 10 12 8 6 12 20 23 21 19 22 23 24 25 23 23 21 17 14 14 14 10 13 15 11 9 10 10 11 13 15 14 13 13 14 14 13 11 12 11 13 15 13 18 21 19 15 16 16 11 8 10 12 12 13 11 9 13 12 10 12 12 11 10 9 8
15 15 15 16 15 15 15 13 11 13 14 15 16 15 13 9 7 8 11 13 12 12 11 10 17 16 13 15 13 20 22 18 19 21 24 25 23 21 19 16 14 13 14 12 13 14 11 9 12 13 14 17 18 18 17 17 17 16 13 13 15 12 12 16 14 19 20 15 13 17 17 15 13 11 12 11 11 11 10 12 11 11 11 10 11 10 10 8
14 15 15 17 16 15 15 13 11 13 14 14 14 11 8 7 5 2 4 12 17 20 19 17 17 18 19 22 16 13 15 13 15 19 24 25 23 19 16 15 16 13 14 16 13 12 12 12 15 17 18 18 20 19 17 19 21 17 13 12 13 13 12 15 15 21 19 14 13 17 14 14 14 12 12 11 10 9 10 10 10 12 11 8 10 11 9 5
13 14 16 17 17 16 15 13 13 15 15 14 13 11 11 13 13 8 4 8 14 20 22 23 22 18 21 27 24 19 14 10 13 17 22 24 21 17 15 16 16 13 16 17 12 12 13 14 18 20 19 18 18 19 18 20 21 16 12 10 10 12 12 13 17 22 18 11 12 16 11 11 12 10 10 10 8 6 9 10 7 8 9 11 13 10 7 6
13 14 16 17 17 17 15 14 15 17 17 15 15 15 16 18 18 14 9 8 11 16 19 21 22 18 20 25 22 21 16 11 13 15 20 22 19 17 16 17 17 16 17 18 15 13 12 13 18 19 18 19 19 19 19 18 16 14 12 10 10 13 12 11 14 21 18 11 12 16 11 9 10 9 9 10 8 6 8 9 10 13 12 14 12 6 5 7
13 14 15 16 17 16 14 16 19 20 20 18 19 20 19 18 17 14 9 8 11 14 18 21 19 16 20 21 17 17 13 11 13 15 20 20 17 16 16 17 18 16 16 21 21 16 13 13 17 19 20 21 20 19 19 14 12 14 16 13 11 14 16 13 11 17 18 13 15 15 11 7 9 10 9 9 8 7 6 8 13 14 12 14 14 7 3 6
12 13 14 15 16 15 14 16 18 20 18 18 20 22 20 15 12 10 8 6 8 12 18 21 15 15 23 22 17 15 12 12 15 15 20 22 18 15 14 13 13 16 19 24 23 16 15 15 18 21 21 22 21 17 18 15 10 13 16 17 13 15 20 16 13 13 12 11 15 13 9 6 10 12 11 9 9 10 7 7 10 11 12 15 13 8 5 5
11 12 13 14 14 14 12 10 12 16 13 14 13 10 11 11 4 5 5 5 6 9 13 15 11 15 22 19 15 15 14 13 16 17 20 23 21 15 13 10 9 15 20 20 15 9 12 17 19 21 21 22 21 16 18 19 11 10 13 17 18 17 20 16 15 12 9 9 13 14 9 6 9 12 13 12 11 13 10 8 10 9 9 12 11 9 9 9
11 11 12 13 13 11 9 8 14 16 9 6 3 2 1 2 1 2 3 5 6 7 12 13 10 15 20 17 16 15 12 9 13 19 18 24 23 16 15 13 10 14 15 12 11 9 13 20 20 21 22 19 17 14 17 20 13 9 13 17 20 19 19 17 17 12 9 9 12 16 12 7 8 11 15 16 14 13 11 10 12 10 10 13 12 11 12 11
10 11 11 13 13 10 11 13 17 14 6 3 4 2 2 2 2 2 2 4 3 2 8 9 11 17 18 17 20 17 10 9 12 16 17 25 24 16 15 18 15 16 17 13 11 12 15 19 20 22 20 15 15 15 17 19 14 11 14 17 19 18 18 14 16 11 10 10 10 14 14 8 7 10 15 17 16 14 12 11 13 13 12 12 12 12 12 11
10 10 10 12 13 12 15 16 17 17 13 11 7 1 1 1 2 2 3 5 3 1 5 8 11 13 14 16 20 19 13 11 12 12 16 22 24 17 13 17 18 18 20 18 14 13 14 17 18 20 17 13 15 17 18 19 14 14 16 16 17 18 16 13 14 11 11 10 10 14 16 9 6 10 13 14 14 13 10 10 12 12 12 11 11 11 11 11
10 10 10 11 12 12 15 16 19 21 18 15 9 1 1 2 2 3 6 4 2 1 5 7 8 10 14 16 17 19 18 14 12 14 14 16 21 19 13 14 17 14 17 19 17 15 15 15 16 16 14 14 15 17 19 19 16 17 17 14 14 15 12 10 11 10 8 8 12 17 18 13 8 8 10 10 11 14 11 10 11 12 12 11 10 10 10 10
9 9 9 10 11 12 12 12 14 16 16 13 8 3 2 2 3 5 7 4 3 4 5 9 10 11 15 17 14 17 19 17 14 17 14 14 18 17 13 13 13 11 13 14 14 17 17 16 14 13 15 16 16 18 17 17 19 17 13 9 10 10 8 9 9 9 6 7 13 18 19 17 10 7 11 10 11 17 15 12 13 13 12 11 10 9 9 9
10 11 11 12 14 14 14 13 11 11 7 9 6 4 2 3 6 6 6 3 2 4 5 9 12 12 16 18 15 16 18 16 15 18 16 15 14 15 15 12 10 11 13 12 13 16 16 15 14 15 19 20 16 14 14 15 17 15 12 9 10 8 6 8 9 8 7 8 14 17 17 16 9 5 11 14 17 18 14 14 15 14 12 11 10 9 8 8
12 13 14 14 15 16 18 19 16 11 3 3 4 4 3 5 7 8 8 7 2 1 2 4 9 14 16 16 15 17 18 16 16 18 18 17 14 15 18 17 15 14 12 13 14 13 12 14 18 18 15 16 15 12 12 13 15 14 12 10 10 9 7 8 9 8 8 9 13 16 15 11 5 4 3 11 19 17 15 16 15 14 13 12 11 9 8 8
13 14 14 15 16 18 19 17 15 9 3 4 4 4 6 8 7 7 9 9 4 2 4 5 6 11 14 14 14 16 16 16 18 18 18 17 14 14 17 19 21 16 11 12 12 11 13 12 16 17 12 14 18 16 14 13 13 13 13 12 11 9 7 7 9 9 10 11 12 14 9 2 4 6 9 13 17 17 17 16 15 13 12 12 11 9 9 9
13 14 15 16 17 19 19 17 15 10 6 5 5 6 9 8 6 7 6 3 3 5 7 6 3 7 10 12 15 18 16 14 18 18 16 16 14 14 15 16 21 19 13 11 9 11 15 12 14 17 14 18 20 17 16 15 13 11 12 12 10 11 9 5 6 7 5 7 8 7 3 4 5 8 11 14 15 16 16 15 15 13 12 11 10 9 8 8
13 14 14 16 18 17 18 18 15 13 9 6 6 8 9 7 6 5 2 0 2 6 8 7 7 7 7 9 13 20 19 14 16 15 13 15 16 17 17 14 19 21 14 10 8 10 13 11 15 18 16 20 21 18 18 16 11 9 11 12 11 14 11 4 5 4 2 3 4 5 5 5 4 6 10 13 14 15 14 15 15 13 12 11 9 8 8 8
12 12 12 16 19 17 19 19 17 16 10 6 8 8 8 9 10 6 2 4 7 9 7 4 5 5 7 8 10 18 20 15 15 12 11 15 15 18 20 17 19 22 17 13 8 9 11 9 15 21 20 20 20 20 20 17 13 9 9 12 11 12 11 5 5 5 2 5 4 8 10 9 5 3 7 13 13 13 13 14 14 13 12 10 9 9 8 8
11 10 12 18 21 19 21 23 20 15 8 6 9 10 9 10 9 6 5 7 7 7 6 2 2 4 6 8 10 18 20 13 12 13 11 12 13 18 22 17 17 22 21 17 9 8 11 8 12 20 20 18 18 18 17 16 18 14 10 12 10 8 10 7 5 6 7 8 4 9 13 10 6 6 10 14 15 14 14 14 14 13 12 10 10 10 9 9
10 8 8 14 20 20 22 24 20 12 7 7 8 8 9 11 11 7 7 10 8 6 5 1 2 3 4 7 11 15 19 15 12 12 11 10 11 19 22 15 16 22 23 19 11 7 10 7 8 16 19 17 15 13 11 13 18 17 12 12 9 7 8 7 5 6 7 8 6 7 9 6 5 10 16 18 18 17 16 14 13 13 12 10 9 9 9 8
7 4 4 8 13 19 23 23 15 8 7 8 8 8 9 11 11 8 10 13 9 5 4 0 3 1 3 7 11 9 13 17 14 10 10 11 11 17 22 18 17 23 24 22 15 8 7 6 6 13 17 14 11 11 13 14 15 13 11 12 10 7 7 8 8 7 8 7 6 6 6 4 3 8 17 20 19 18 17 14 13 13 12 11 10 9 9 8
5 4 4 6 12 20 23 16 9 7 7 8 9 11 11 10 8 8 10 13 8 4 4 2 1 2 3 7 10 9 10 13 15 11 9 12 11 11 18 20 17 20 21 18 15 8 5 5 6 9 13 12 12 15 17 18 17 14 11 11 12 10 9 10 9 9 8 7 6 6 5 4 2 0 10 18 18 17 18 16 13 12 13 11 10 10 9 9
5 3 2 7 15 22 18 8 7 7 7 8 10 11 11 9 8 9 10 11 8 5 5 3 2 3 4 8 10 9 10 10 14 12 9 13 14 10 16 22 20 19 17 13 14 10 3 3 6 8 10 13 16 18 18 19 19 17 12 12 12 11 9 8 7 8 8 8 8 6 4 4 4 5 4 11 14 16 17 17 15 12 13 12 11 11 10 9
4 3 1 8 15 20 12 6 6 7 7 10 13 13 11 9 9 10 11 10 8 5 5 4 3 5 7 8 10 10 9 8 12 14 11 13 15 13 17 23 21 19 16 12 12 9 3 4 7 7 8 11 16 18 17 18 16 14 14 13 11 11 11 9 5 4 5 7 8 3 3 3 4 7 6 11 14 16 15 15 15 13 11 12 12 11 10 9
4 3 2 9 15 16 9 6 7 8 9 12 14 13 12 10 9 10 10 8 7 6 4 4 4 5 7 8 9 10 8 6 9 14 12 11 13 14 19 22 21 17 13 10 9 8 4 6 9 8 7 9 11 13 14 15 13 10 12 13 15 16 16 11 6 3 2 6 7 2 4 4 4 5 9 15 17 16 14 14 14 13 11 11 11 10 10 10
4 3 1 6 11 10 7 7 6 6 7 10 13 13 11 9 10 13 13 9 6 5 3 5 4 3 6 10 10 11 9 5 5 9 12 11 10 13 19 22 20 15 13 13 12 9 6 6 8 8 8 9 10 10 10 12 11 10 13 18 20 19 16 10 6 4 3 6 7 4 7 7 7 7 11 17 17 15 15 14 13 12 12 11 11 10 10 10
2 2 2 3 5 6 7 8 8 7 6 7 8 11 11 10 10 10 8 5 4 5 5 6 6 4 7 12 10 10 8 3 5 6 9 10 9 10 16 21 21 16 16 17 15 9 5 6 8 10 10 9 10 12 13 14 13 12 17 21 20 17 16 11 5 5 6 5 2 7 14 15 11 11 13 16 16 16 15 14 13 12 12 12 11 11 10 9
2 2 2 3 4 6 7 8 9 8 8 7 6 8 10 12 9 2 1 2 2 6 7 7 9 8 9 10 8 6 2 1 9 9 4 5 8 10 13 19 20 17 18 17 15 9 4 7 10 11 10 8 11 16 19 19 18 18 19 21 19 17 16 11 6 6 7 4 1 7 19 20 15 14 17 17 16 16 15 14 13 12 12 12 11 12 11 10
2 2 3 3 2 6 7 9 11 11 11 9 7 8 9 13 11 3 3 2 3 5 6 7 10 12 12 10 7 5 1 3 11 8 2 3 6 8 12 16 15 16 19 15 13 8 5 6 6 6 8 7 10 15 19 21 19 17 16 15 16 17 17 12 6 5 3 4 6 11 18 19 15 13 16 16 15 15 15 14 13 12 13 13 12 13 13 11
2 3 4 5 5 5 7 9 12 12 13 10 8 9 10 11 10 4 0 1 3 6 8 8 9 11 14 14 7 4 4 6 8 5 5 5 3 4 10 14 12 14 17 14 11 7 5 5 7 5 7 6 11 15 18 19 17 17 17 15 15 17 10 1 5 11 14 14 16 18 18 15 11 10 12 11 11 12 12 13 13 14 14 14 13 14 13 12
2 3 3 5 6 6 8 8 9 11 10 8 7 9 9 9 9 7 5 4 5 6 7 10 12 11 13 14 10 9 7 4 2 5 5 6 4 6 7 9 9 12 16 13 8 4 2 3 6 6 3 3 11 12 13 15 16 17 14 6 3 7 10 14 14 15 17 17 20 22 18 12 8 9 11 11 10 12 13 14 14 13 14 15 14 13 13 12
5 7 6 5 5 5 6 7 8 9 7 6 7 7 6 7 7 7 7 8 10 9 8 11 13 11 11 12 13 11 4 4 2 9 9 7 6 7 6 7 9 12 14 12 6 2 1 1 2 5 4 5 6 3 5 6 9 6 6 11 12 9 12 13 11 12 16 20 20 18 13 9 9 11 12 11 12 14 14 14 12 10 12 14 13 13 13 11
7 8 6 4 4 4 5 6 7 7 4 3 5 4 2 4 7 7 6 7 11 13 13 13 13 10 8 8 9 4 4 6 4 9 8 9 7 6 7 9 12 11 10 9 6 3 6 4 1 4 4 6 5 7 7 1 8 8 8 9 10 13 13 12 12 12 14 16 13 9 9 10 13 14 14 13 12 12 11 10 9 9 11 13 13 13 12 11
Wind_Direction
334 333 332 333 332 332 332 331 329 327 326 324 322 318 317 318 317 317 318 318 317 315 317 317 315 315 316 316 314 314 320 315 302 291 261 251 246 246 253 250 259 252 222 223 229 215 201 209 220 222 222 225 223 232 235 223 225 228 225 244 242 237 238 248 252 246 269 120 106 186 177 216 186 170 225 191 177 163 146 117 81 80 89 94 103 114 122 126
332 330 330 329 328 329 329 329 328 325 321 317 315 314 313 312 312 314 314 315 314 313 316 317 316 314 315 315 313 317 322 309 292 279 262 255 245 242 245 242 252 250 216 221 227 214 206 207 211 214 216 224 213 216 232 211 208 231 224 232 236 238 241 246 275 8 8 73 86 30 215 237 187 168 184 191 184 152 148 137 102 95 99 103 110 116 123 132
329 327 327 324 324 325 325 327 325 324 322 317 314 312 311 309 309 311 313 314 314 314 313 313 315 312 314 315 314 321 319 304 287 270 261 255 238 232 233 233 238 238 221 221 226 219 216 215 207 207 213 224 215 209 222 199 190 224 231 231 234 243 250 248 357 36 21 19 74 152 219 235 176 160 172 195 178 156 179 159 128 121 114 110 116 122 130 142
326 325 323 320 320 320 321 322 321 322 322 319 317 314 312 311 309 310 313 314 315 315 312 314 317 312 314 315 315 323 316 297 282 264 246 234 224 221 223 226 227 227 224 227 240 242 230 224 211 208 218 225 220 216 217 200 186 213 222 238 240 237 249 260 21 342 38 0 338 42 205 214 187 145 185 197 177 180 209 181 151 134 128 123 124 129 135 151
323 322 320 317 317 317 318 318 319 319 319 318 316 314 311 310 310 310 311 313 315 313 311 314 317 317 315 314 314 318 309 285 319 87 139 189 196 206 217 222 223 222 223 230 247 254 238 228 220 209 220 234 225 218 215 206 202 222 223 239 251 248 255 294 342 240 177 162 300 280 208 212 182 202 229 209 182 134 56 148 136 124 129 130 132 135 141 159
321 319 317 316 316 315 315 315 316 316 315 315 313 313 311 309 311 310 309 311 313 312 311 311 314 316 313 312 309 299 281 263 79 97 126 156 169 188 207 215 218 216 220 232 241 247 234 226 227 214 213 235 235 225 213 205 208 228 228 232 249 261 272 295 272 228 130 167 241 248 339 0 181 214 239 227 129 91 78 99 115 118 125 125 136 139 147 161
316 315 314 315 314 313 314 313 314 313 312 311 310 312 311 310 309 309 310 309 311 312 310 309 311 313 314 318 305 271 247 263 286 132 143 155 167 168 185 207 213 207 212 228 231 236 230 222 226 221 213 225 239 236 220 209 210 224 238 235 242 253 263 275 267 155 133 223 243 259 357 284 219 218 220 195 101 102 99 105 113 117 120 123 138 137 153 158
312 312 311 311 311 311 313 313 312 311 310 310 307 307 308 310 308 307 308 308 311 309 309 311 311 313 315 321 304 256 229 250 255 223 200 218 189 175 171 195 200 200 207 219 224 227 227 223 222 222 221 222 232 238 229 217 216 221 237 246 244 241 240 250 255 175 198 224 241 256 238 228 232 230 200 152 113 116 111 117 121 121 122 125 138 146 161 144
308 308 308 308 309 310 312 312 311 308 307 307 306 305 304 305 306 308 305 304 307 304 306 308 307 313 309 303 288 263 237 243 249 240 229 203 179 186 201 194 188 195 207 215 220 226 225 221 222 223 227 228 229 237 235 226 222 218 225 245 253 242 228 231 230 212 214 213 214 223 223 221 227 238 192 147 142 135 123 127 127 128 128 125 143 152 142 123
306 306 305 306 307 308 311 311 309 307 306 305 305 304 302 302 304 306 303 302 305 302 302 304 306 311 298 281 260 256 247 242 248 238 222 202 174 185 202 201 191 195 208 214 218 224 226 223 222 226 235 239 237 240 238 232 233 224 218 230 247 252 233 228 229 216 219 221 210 211 223 218 198 217 197 148 148 140 127 133 137 138 132 128 142 132 115 115
306 305 304 304 305 307 309 309 307 306 304 303 303 303 301 301 300 300 301 299 299 298 298 301 305 303 289 275 252 245 239 236 244 232 221 224 215 209 213 210 199 201 210 215 219 222 227 229 227 229 232 237 245 248 245 237 240 241 230 224 235 245 240 226 226 218 218 221 216 211 221 213 175 220 215 141 149 158 133 142 153 145 133 129 132 121 110 109
305 304 304 303 303 305 307 306 305 302 301 302 302 303 301 300 298 296 297 295 295 294 294 297 300 294 283 270 250 242 242 252 282 280 236 225 231 228 224 219 210 210 213 217 220 221 225 230 231 234 227 227 240 246 252 242 238 243 239 233 232 233 237 229 214 213 217 209 209 210 221 207 174 227 222 142 163 178 141 160 171 146 136 131 126 122 116 115
305 305 303 301 301 303 305 303 300 299 300 302 301 301 300 296 294 292 292 292 290 286 283 290 294 283 275 267 257 248 248 261 286 290 268 233 238 234 225 223 220 216 218 223 224 220 224 229 232 238 237 234 233 235 264 254 238 236 223 227 237 224 226 228 212 209 214 197 193 203 227 198 174 222 216 144 174 177 146 179 174 139 132 124 123 124 122 130
307 306 303 301 301 302 302 300 298 299 300 301 301 301 298 293 291 288 286 284 285 286 280 282 283 271 263 262 263 255 252 263 275 274 262 249 250 240 224 221 225 223 221 227 230 224 223 227 233 239 240 242 245 242 252 251 232 231 225 222 235 234 218 212 207 209 210 195 188 201 231 188 181 214 190 144 182 172 158 173 128 117 116 107 121 130 134 143
309 308 305 301 299 299 298 298 299 300 300 299 299 298 294 289 288 287 284 278 278 282 278 273 260 253 265 259 258 259 251 254 261 258 249 244 244 240 226 217 221 226 226 228 232 231 223 223 229 235 234 236 249 249 236 234 225 217 225 222 219 237 226 201 198 204 206 199 192 199 227 196 189 194 156 152 183 167 171 153 111 118 121 115 127 123 124 133
310 309 307 302 299 298 297 298 299 300 301 300 298 294 290 287 288 288 282 273 271 268 263 263 242 229 258 265 251 254 240 233 243 246 240 237 235 233 227 216 214 218 224 227 228 231 224 219 222 227 232 228 235 244 230 225 223 208 217 226 216 220 234 204 186 194 205 205 195 194 219 221 189 165 146 165 182 179 184 141 125 150 135 123 130 123 136 150
309 309 308 305 302 299 297 297 297 299 301 300 296 293 289 287 286 283 275 264 262 252 237 249 249 232 251 273 264 252 234 222 224 228 227 229 229 227 225 216 211 211 215 220 221 227 223 215 217 219 227 227 221 228 228 220 214 207 207 223 224 214 231 216 175 184 203 207 197 193 220 242 177 154 155 175 185 195 183 139 143 161 133 126 134 144 166 160
308 310 310 309 306 302 297 293 294 299 300 297 296 295 291 287 281 273 264 244 236 238 232 243 258 253 243 247 243 235 228 217 213 216 216 217 220 220 220 217 209 204 208 213 213 218 217 208 210 210 212 219 219 215 218 217 211 210 202 213 229 215 225 225 177 175 198 205 196 197 221 239 148 149 163 181 188 202 181 142 143 142 130 141 147 156 166 150
307 309 310 310 307 305 298 290 293 300 299 299 301 302 296 285 271 259 244 214 198 208 218 211 205 217 261 248 229 226 231 217 205 211 209 205 209 213 216 218 211 201 204 204 198 204 208 202 202 209 207 207 215 215 215 220 217 214 205 209 225 217 221 228 192 169 190 203 194 203 217 202 166 162 171 180 187 200 176 143 147 154 156 161 163 164 150 132
306 307 309 309 304 305 301 290 294 299 298 302 307 306 290 260 242 243 224 209 206 217 231 211 193 210 264 281 246 222 229 226 205 203 203 198 196 203 210 212 207 202 206 202 191 194 199 202 204 208 208 204 211 218 219 227 230 222 208 209 224 223 221 225 195 165 185 201 193 211 216 187 174 181 180 177 186 195 171 151 161 171 173 166 155 142 123 117
303 307 310 310 305 301 297 296 298 293 292 297 297 289 271 258 273 303 207 221 225 230 247 250 225 222 250 271 279 245 227 223 209 199 197 194 189 194 201 201 201 200 205 203 192 190 198 210 212 208 210 207 209 216 219 230 240 238 219 208 219 225 225 220 181 158 184 203 195 210 206 172 174 186 178 170 184 186 161 163 179 176 170 140 110 96 84 87
298 303 308 311 307 298 295 300 295 287 289 287 276 262 261 275 289 307 291 257 243 235 243 253 250 246 250 259 273 272 246 211 210 202 190 189 187 190 191 193 203 198 198 202 192 191 203 214 212 207 210 211 210 213 216 228 239 246 236 212 214 225 223 213 176 160 182 204 194 197 182 155 169 175 158 163 183 164 154 174 170 145 130 99 87 78 69 67
292 300 305 306 305 299 294 293 289 285 279 267 257 252 255 266 281 294 285 273 267 250 240 243 245 245 248 251 256 259 246 213 214 204 188 189 188 193 192 189 202 199 193 202 199 195 205 212 210 205 207 211 213 210 212 224 233 243 245 220 211 220 220 212 180 167 178 199 200 184 162 146 158 159 160 170 170 145 163 168 108 90 102 105 104 102 95 94
289 298 303 302 303 297 292 292 286 274 260 251 250 250 255 269 286 298 292 277 275 263 247 239 235 231 238 243 239 243 241 220 223 206 193 195 188 193 201 191 197 203 196 201 204 206 210 204 203 206 205 208 215 210 207 219 227 232 243 238 214 208 222 222 181 168 173 198 218 188 154 157 168 169 170 162 150 137 153 150 108 95 106 109 106 105 86 98
285 296 300 301 303 299 299 296 280 266 251 239 244 247 248 257 280 297 298 286 268 256 243 232 227 223 227 232 227 225 228 223 230 215 194 196 192 189 202 197 196 206 200 200 206 211 213 201 195 206 206 205 213 211 205 213 221 224 234 243 227 203 220 217 170 165 174 198 216 182 148 168 176 179 170 153 160 152 137 135 119 110 116 111 108 119 125 117
282 293 296 298 303 306 302 286 282 289 268 235 240 254 241 230 259 316 290 269 269 257 225 206 206 206 210 220 214 212 226 222 228 226 195 189 198 195 199 201 197 208 202 198 208 214 211 202 193 203 206 203 211 212 205 208 218 223 215 233 239 218 218 202 160 171 194 201 196 170 167 178 175 190 174 157 167 159 155 158 136 116 114 112 114 128 128 119
281 290 293 295 300 304 287 283 309 311 288 241 252 45 120 199 353 346 268 250 260 237 195 178 179 179 186 201 195 200 223 201 212 234 203 180 195 205 203 201 195 207 204 193 207 210 205 203 193 201 206 200 209 213 203 204 214 220 200 220 239 230 220 193 162 180 204 207 192 172 179 181 178 196 174 167 175 159 160 164 139 116 97 95 101 107 106 100
273 282 289 290 292 287 271 286 302 286 260 357 20 104 91 29 325 280 240 250 265 176 166 165 162 165 177 189 188 199 222 186 190 229 213 182 189 208 208 205 200 203 206 200 204 200 201 206 194 197 205 201 206 210 201 202 215 221 203 215 234 236 234 198 162 182 203 209 212 186 185 189 191 190 171 174 179 161 156 151 131 118 104 96 96 95 91 89
263 275 281 285 288 280 265 269 275 265 274 313 324 267 199 307 308 274 237 253 288 81 142 153 159 169 184 183 185 200 214 205 187 200 212 192 191 211 218 211 206 203 210 211 209 199 197 209 201 194 204 206 203 206 206 201 209 225 212 208 225 237 243 212 172 182 199 209 225 203 192 196 198 184 174 179 178 163 152 136 120 114 110 103 99 96 90 89
260 270 274 282 279 272 264 253 252 258 269 286 287 237 212 255 256 224 225 238 272 213 140 145 168 183 190 183 186 198 204 215 194 179 204 195 191 211 221 218 215 207 211 213 215 208 191 205 215 199 200 209 201 203 213 202 198 226 223 203 217 232 243 230 191 181 195 211 226 216 202 200 203 182 180 189 171 153 140 126 121 116 112 106 99 93 87 86
261 265 266 270 261 266 268 246 250 258 250 255 260 226 237 252 223 218 221 228 254 230 160 160 187 194 193 188 185 194 203 216 198 177 193 189 186 206 212 214 217 207 207 209 214 214 195 197 215 201 193 206 205 201 210 201 194 220 233 204 208 223 239 234 195 179 198 210 218 216 207 210 217 185 184 185 139 132 136 135 133 126 118 109 96 90 91 90
260 264 266 263 256 263 260 251 289 312 260 236 227 208 229 225 224 228 223 230 244 230 193 177 194 200 197 193 186 191 202 214 199 182 191 190 181 199 208 205 202 198 201 198 200 211 202 194 206 203 193 200 204 196 203 199 192 214 231 209 203 207 223 217 185 185 210 216 218 209 201 212 217 167 180 170 134 128 139 139 134 130 121 109 98 94 95 93
261 270 270 261 252 252 252 257 284 313 308 209 192 194 226 224 225 223 225 240 246 229 269 231 213 206 198 195 190 191 198 210 202 184 189 198 188 194 208 211 207 202 200 195 193 202 202 194 203 206 195 196 201 194 197 196 193 208 218 207 201 198 205 197 181 193 209 220 224 207 197 207 186 79 68 134 128 126 132 131 126 122 116 108 103 101 95 91
266 272 268 258 249 247 251 257 264 269 251 203 193 205 225 227 233 228 228 243 275 315 271 267 244 222 210 203 195 190 195 210 207 185 181 198 197 190 204 214 211 207 202 198 191 193 200 195 197 197 180 188 207 208 199 196 199 207 211 209 205 204 210 195 185 197 201 209 216 202 198 203 125 97 60 87 106 108 113 117 114 110 111 110 107 106 100 96
271 271 264 257 250 244 244 247 246 240 226 208 206 223 223 222 234 237 236 255 333 312 253 227 221 232 224 214 203 192 192 209 208 191 183 196 200 191 196 209 209 205 202 197 185 193 205 200 191 194 184 185 206 216 201 193 200 205 210 211 204 207 214 202 210 221 208 208 204 181 158 41 88 107 90 89 97 104 110 113 112 110 112 112 108 109 108 104
272 268 258 248 245 238 230 230 228 219 211 208 217 225 224 228 241 244 255 173 259 276 257 212 195 212 214 217 210 195 194 207 206 195 191 197 201 194 194 205 205 200 202 201 184 188 203 195 183 195 202 193 200 215 207 196 196 198 210 211 201 209 212 191 222 249 329 240 196 114 105 102 107 113 111 111 108 112 117 114 114 115 115 115 112 112 111 107
270 265 257 246 239 229 216 211 206 203 205 212 221 229 232 240 253 271 279 230 240 264 268 220 201 220 205 214 218 195 193 204 200 191 192 197 199 195 196 205 202 197 203 208 199 196 205 192 176 190 206 199 196 214 217 206 198 198 206 202 198 216 217 194 202 208 212 236 193 121 134 148 153 158 138 132 125 124 125 119 118 122 121 119 117 119 114 106
272 270 266 254 239 223 206 196 190 189 199 216 227 244 250 242 258 307 311 266 257 267 270 221 221 261 220 218 221 196 191 198 195 192 195 195 194 193 196 202 198 197 203 205 205 211 214 202 175 188 202 193 190 213 221 204 204 215 206 190 194 217 213 193 197 204 202 220 192 132 146 165 172 165 157 152 144 137 133 130 130 130 128 125 124 124 115 105
271 269 266 253 236 218 195 183 182 185 200 216 222 239 250 248 258 288 296 278 263 255 265 196 136 272 253 241 238 205 190 193 195 196 197 195 189 188 194 199 195 195 199 201 205 213 216 214 178 188 198 189 183 208 218 194 202 219 211 195 206 224 214 196 193 206 208 211 197 151 157 183 176 161 166 165 154 145 142 140 138 132 130 129 126 124 114 106
257 253 267 252 223 198 176 172 181 193 203 220 229 233 241 248 251 244 242 251 254 259 272 161 122 251 280 267 268 246 206 196 194 199 202 199 188 182 192 202 194 189 194 201 208 209 213 215 183 187 197 194 185 203 213 195 192 207 202 195 207 218 221 214 201 206 218 216 196 170 169 171 145 162 170 166 155 147 143 140 136 131 128 127 124 121 113 105
238 246 263 239 196 171 162 167 188 202 211 228 237 240 245 251 257 257 250 250 260 286 287 290 188 227 293 282 278 277 247 210 192 197 206 202 201 189 194 202 194 184 188 203 209 203 203 200 180 184 193 197 196 202 210 203 194 201 205 199 204 210 215 215 206 203 214 223 209 189 163 126 53 319 167 159 154 147 140 135 132 129 127 124 121 116 108 102
246 248 239 223 185 160 159 180 196 203 222 233 236 239 244 251 259 266 262 245 238 242 243 233 214 223 256 269 267 270 269 233 192 191 207 206 207 206 197 197 195 185 184 201 202 190 198 191 176 188 195 198 198 198 211 213 199 198 211 213 209 210 216 217 211 201 206 222 220 196 143 105 40 15 112 140 140 135 132 130 128 128 126 122 117 109 102 99
253 258 276 242 198 166 166 204 198 212 235 236 242 244 241 245 250 251 254 242 228 227 233 226 223 236 245 263 267 266 272 249 198 189 202 210 205 206 202 196 194 188 183 196 192 173 184 182 168 187 204 207 203 195 207 221 212 199 205 215 216 211 216 224 229 204 197 220 220 168 107 113 51 40 91 117 118 122 126 126 125 125 124 119 113 109 106 108
281 289 306 254 216 185 186 208 194 211 229 232 241 246 242 245 247 247 251 245 229 224 241 255 248 240 255 273 267 263 280 275 212 190 195 210 201 199 203 196 194 193 185 189 177 156 179 183 169 183 193 203 205 189 194 217 225 212 202 214 224 215 211 218 228 221 208 226 221 139 96 138 103 78 114 119 119 125 126 126 126 123 122 117 113 114 116 117
296 292 292 251 230 211 214 226 222 226 236 243 245 244 246 251 250 247 244 243 248 247 251 273 272 261 277 278 269 265 268 268 233 196 193 207 198 195 201 191 190 195 181 180 180 166 175 179 174 188 188 190 197 185 187 204 213 212 203 211 221 219 216 214 199 191 202 220 217 153 112 125 116 110 123 124 126 128 127 128 127 122 121 120 120 123 121 117
299 283 238 194 211 227 236 248 260 264 268 275 259 242 243 249 255 259 253 249 287 286 263 266 279 287 266 258 260 267 259 265 290 243 201 201 189 192 197 183 186 194 171 171 186 177 168 183 191 207 203 194 201 196 192 197 204 207 205 207 214 223 232 228 200 198 199 197 195 128 130 135 140 142 138 133 130 128 129 129 125 122 123 124 126 125 122 119
270 274 231 154 181 215 230 245 250 248 251 264 265 249 242 243 247 286 57 207 260 275 262 257 254 250 250 242 240 259 281 337 277 262 234 215 182 180 198 188 188 182 156 166 191 182 175 191 191 211 216 212 219 205 191 195 204 205 205 205 206 216 231 227 193 198 205 190 125 141 141 142 153 154 142 137 135 132 131 129 127 129 129 128 128 125 123 120
255 281 299 328 257 215 215 226 227 232 237 238 256 267 257 246 237 184 133 212 252 260 251 246 239 237 246 247 244 262 267 235 248 238 201 241 193 174 195 190 178 159 149 171 193 179 196 191 166 215 226 224 246 226 200 197 202 206 212 207 196 210 235 241 203 167 146 127 145 154 143 135 140 142 133 133 135 130 129 130 131 133 131 131 131 125 122 118
282 296 299 317 302 253 247 240 224 226 232 231 247 262 257 254 253 249 319 294 275 249 237 248 253 241 240 240 241 265 234 212 232 223 180 200 222 209 190 174 163 159 161 177 187 184 211 172 141 195 211 228 269 249 213 197 192 201 216 214 197 199 213 271 93 102 99 111 128 130 123 116 116 116 114 117 115 115 122 129 132 135 134 132 128 122 119 113
281 308 300 313 306 280 282 275 243 231 230 225 241 257 259 263 269 276 275 248 248 254 243 247 252 247 241 235 225 233 229 181 208 254 211 176 203 237 196 154 155 174 178 179 176 190 233 152 154 165 152 252 264 251 223 207 199 198 206 225 219 164 116 87 88 98 103 115 123 118 112 108 102 96 96 100 106 115 125 131 133 135 132 128 123 118 114 106
301 296 284 293 308 301 301 290 255 235 227 215 229 253 273 280 279 280 273 250 243 253 257 251 248 246 247 244 235 228 193 113 255 255 228 192 208 232 206 163 164 179 186 179 157 149 147 118 184 156 142 228 240 327 323 227 192 157 71 32 29 64 91 92 98 110 118 124 125 121 121 128 125 116 109 112 121 126 128 130 130 129 128 125 121 116 111 104
329 310 296 290 296 298 299 286 251 233 236 246 243 240 248 284 291 286 275 255 242 241 245 250 251 247 247 257 264 267 96 102 267 267 228 199 216 241 223 190 177 184 191 168 143 146 142 133 189 156 176 205 137 53 347 216 124 81 41 18 34 63 73 73 76 91 117 129 134 136 137 135 131 127 125 125 125 124 122 124 125 125 124 121 115 111 108 100
Height
812 811 810 809 808 807 806 806 805 804 803 802 801 801 800 799 798 798 797 796 795 794 793 792 790 789 788 786 784 782 780 778 775 774 769 764 765 766 766 767 767 768 768 768 768 768 767 768 767 765 766 764 763 761 757 754 752 757 767 774 773 767 758 744 735 732 730 730 732 728 725 729 731 728 720 716 722 726 727 730 735 739 741 746 750 753 757 763
812 811 810 809 808 807 806 805 805 803 803 802 801 800 799 798 798 797 796 795 795 794 792 791 790 789 787 786 784 782 780 777 774 769 762 760 764 764 764 765 766 767 767 768 767 765 765 765 764 763 764 763 761 759 758 753 753 760 766 772 769 758 745 731 726 728 729 732 733 731 727 726 727 726 722 728 733 730 736 739 742 749 750 750 751 755 760 763
811 810 809 809 808 807 806 805 804 803 802 801 800 799 798 797 797 796 796 795 794 793 792 791 789 788 787 785 783 782 780 777 771 761 754 756 760 760 762 764 764 766 766 766 765 762 762 760 760 761 763 763 759 757 758 753 754 759 762 769 762 747 738 725 724 730 732 732 734 734 729 726 724 720 722 731 735 736 741 742 747 756 756 755 755 756 760 764
811 810 809 808 807 806 806 805 804 803 801 800 799 798 798 797 796 796 795 794 793 792 791 790 789 787 786 784 783 782 781 776 763 752 750 752 755 757 760 762 763 765 765 764 764 761 759 757 756 758 761 763 757 754 757 752 753 756 758 764 751 739 738 727 724 730 733 734 736 735 732 732 725 720 725 729 737 743 737 733 742 752 754 755 757 758 761 765
810 809 808 807 807 806 805 804 803 802 801 799 799 798 797 796 796 795 794 793 793 792 791 790 788 787 785 784 783 782 783 773 754 747 750 750 752 755 757 759 761 763 763 764 763 761 758 755 754 756 761 762 757 755 755 748 750 755 754 754 743 737 738 729 726 730 732 737 739 738 737 732 725 726 728 727 740 747 734 727 735 745 750 752 755 758 761 764
809 808 807 806 806 805 804 803 802 801 800 799 798 797 796 796 795 794 794 793 792 791 790 789 788 787 785 783 782 783 783 767 749 749 751 750 753 755 756 758 759 761 763 764 762 760 757 754 755 758 761 762 758 755 753 746 747 757 754 747 742 738 738 731 729 731 732 741 744 739 735 731 731 735 728 725 738 741 732 730 737 744 746 749 753 756 760 763
808 807 807 806 805 804 803 802 802 800 799 798 797 796 796 795 794 794 793 792 792 790 790 789 788 786 784 783 780 780 779 762 748 752 752 751 754 754 756 757 757 760 761 762 760 759 756 755 757 756 760 762 759 753 749 745 746 755 755 746 741 739 738 734 731 733 737 744 741 735 737 738 740 738 728 727 733 734 733 735 740 744 744 749 753 757 760 762
807 807 805 805 804 803 802 801 800 799 798 797 796 796 795 794 794 793 792 792 791 790 789 788 787 786 785 784 780 775 770 758 749 752 752 751 753 753 756 756 757 759 759 760 758 756 755 756 756 754 759 760 755 751 746 746 748 752 753 746 739 737 737 735 734 737 740 742 738 736 742 742 736 731 729 731 731 732 736 738 742 745 747 752 757 760 761 763
807 806 805 804 803 802 801 800 799 798 797 796 796 795 794 793 793 792 792 791 790 790 788 788 787 786 785 784 782 774 762 752 750 752 752 751 752 752 754 754 756 757 758 758 755 755 754 754 754 751 756 754 750 749 744 748 751 747 748 746 741 737 735 735 736 738 740 739 738 743 746 740 731 730 733 731 729 731 734 740 744 747 750 754 758 761 762 765
806 805 804 803 802 801 800 799 798 797 796 796 795 794 793 792 792 792 791 791 790 789 788 788 787 785 785 782 780 771 756 750 750 750 751 750 751 752 753 754 755 756 756 755 754 753 751 751 749 746 750 750 747 747 743 746 746 739 741 743 741 738 734 735 737 738 740 738 738 745 747 738 730 736 741 732 726 729 735 743 745 748 753 756 759 761 763 768
805 804 803 801 801 800 799 798 797 796 795 794 794 793 792 792 791 791 790 790 789 788 788 787 787 785 784 780 776 765 751 749 748 748 749 749 750 751 751 752 752 753 753 752 752 750 749 747 744 745 750 749 747 746 742 739 738 735 737 742 742 739 736 736 738 739 740 741 737 739 743 737 733 740 739 729 727 730 737 745 745 748 753 756 761 763 765 769
804 803 801 800 800 798 798 797 795 795 793 793 793 791 791 791 790 790 789 789 788 788 787 787 787 785 783 778 770 759 749 747 747 747 748 748 749 749 749 750 750 751 751 750 749 748 748 746 743 747 748 746 749 750 742 733 734 735 737 747 746 741 742 738 737 739 740 742 734 736 747 744 742 743 730 725 729 730 738 745 743 747 754 759 764 766 767 770
802 801 800 799 798 797 796 795 794 793 792 792 791 790 790 789 789 789 788 788 787 787 786 786 786 785 784 774 762 757 750 745 747 748 747 747 748 747 747 748 747 748 749 747 747 746 747 745 744 746 743 744 748 744 737 731 735 738 738 748 749 748 748 738 735 738 739 738 730 738 758 753 744 739 725 724 729 731 740 744 741 747 756 762 767 769 771 774
801 800 799 798 797 796 795 794 793 792 791 790 790 789 788 788 788 787 787 787 786 786 785 785 785 784 781 769 758 755 750 747 748 747 747 747 746 745 745 745 746 746 746 746 746 745 745 744 743 744 741 742 740 736 737 739 739 741 743 746 750 755 750 736 734 738 740 736 726 740 760 751 741 734 724 726 728 732 742 744 745 752 759 765 768 771 774 775
800 799 798 797 796 795 794 793 792 790 790 789 788 788 786 786 786 785 785 785 785 785 784 784 784 782 777 765 755 751 748 747 745 744 747 747 745 745 743 744 745 745 745 745 745 743 743 743 743 746 744 739 739 742 746 746 742 743 752 755 751 754 747 734 732 735 740 736 727 742 757 746 736 729 724 727 728 733 741 745 751 757 763 768 770 773 777 778
799 798 797 796 794 794 792 791 790 789 789 788 787 786 785 784 783 783 783 783 784 783 784 783 779 780 774 759 749 746 743 742 741 743 745 744 744 743 742 742 742 743 745 744 744 742 740 740 742 744 744 742 745 750 750 751 749 743 752 758 751 750 747 735 731 731 734 736 731 740 750 743 732 727 726 729 730 733 738 745 754 758 762 769 774 778 781 782
798 797 795 794 793 792 791 790 789 788 787 786 785 784 782 781 781 781 781 781 782 781 782 779 774 775 767 752 747 741 735 735 737 738 740 741 742 741 740 739 739 741 742 742 742 740 738 739 742 742 743 745 747 750 756 761 758 748 748 753 746 743 744 735 731 730 729 735 736 737 742 737 727 726 730 730 730 733 736 746 755 755 761 769 775 780 781 782
797 796 794 793 792 791 790 789 788 787 786 785 783 782 779 778 779 779 779 779 780 780 780 775 775 775 757 742 740 733 727 728 730 732 734 737 739 739 739 737 736 738 741 742 741 740 740 738 741 745 747 749 745 746 758 759 752 749 748 751 745 738 738 732 729 730 729 733 737 739 743 737 728 727 731 730 730 733 734 744 754 756 765 773 775 777 777 779
795 794 793 792 791 790 789 788 787 786 785 783 782 779 776 776 777 777 776 776 776 774 770 763 765 761 738 725 727 725 723 723 725 727 729 732 735 736 736 735 734 737 742 744 742 739 739 739 743 749 749 748 744 741 746 744 738 739 739 743 743 736 733 727 721 722 726 733 737 739 743 740 737 734 733 731 729 732 735 743 752 757 762 768 771 773 775 779
794 793 792 791 790 789 788 787 786 785 784 783 781 778 774 771 771 770 770 770 766 759 752 746 748 744 729 719 719 722 722 719 720 722 724 727 731 733 734 733 734 737 740 741 741 736 737 746 747 746 744 741 740 737 736 734 730 728 730 735 736 733 730 719 714 717 720 732 737 735 736 737 739 738 734 733 732 734 738 745 752 755 757 760 765 772 776 781
793 792 791 790 789 787 787 786 785 784 783 782 781 778 771 764 763 763 763 762 757 753 747 742 741 740 731 721 717 718 718 716 715 716 720 723 725 731 732 731 734 738 736 734 737 734 738 747 743 737 736 734 735 734 733 733 729 726 726 730 731 729 724 711 708 715 718 730 736 730 731 736 738 738 733 733 736 738 741 747 751 751 755 761 767 775 780 782
791 791 789 789 787 786 785 784 784 782 781 780 779 776 768 762 761 759 759 757 751 748 746 741 739 737 730 722 720 719 716 716 716 713 715 718 721 727 727 727 733 734 732 731 734 738 741 741 735 731 731 730 731 731 732 733 731 729 723 724 730 725 717 709 704 711 718 728 733 730 735 740 738 737 736 737 739 740 742 745 749 752 760 768 774 781 784 784
790 789 789 788 786 785 784 783 782 780 779 778 775 771 766 763 760 757 756 753 746 740 738 736 735 734 728 722 720 718 713 714 717 712 710 714 717 721 722 725 730 729 730 730 730 738 742 734 728 727 727 729 730 728 731 733 731 732 724 722 726 719 715 715 707 709 717 723 726 729 740 746 743 743 742 741 741 741 743 745 751 759 766 773 777 782 786 787
788 787 787 786 785 784 782 781 779 776 775 773 771 767 764 763 760 758 755 751 744 734 729 726 726 727 723 719 719 718 713 713 714 711 708 711 714 718 718 720 726 727 726 724 724 730 732 725 721 723 724 726 729 727 728 734 733 731 723 717 715 713 713 711 706 708 716 723 719 723 750 758 751 753 751 744 744 747 747 749 756 764 767 772 778 784 788 790
786 786 785 784 784 782 781 781 775 771 770 768 766 762 762 763 760 760 759 755 744 725 718 719 718 717 715 716 717 715 715 714 710 706 703 706 710 715 716 714 720 725 721 719 722 725 722 717 716 721 723 722 726 726 725 731 734 731 722 711 706 708 709 703 704 712 727 738 723 724 766 778 756 754 756 750 751 755 756 757 761 766 768 773 783 792 795 795
784 785 783 783 783 781 782 778 770 767 764 762 760 758 760 760 760 762 761 760 745 716 707 712 711 709 708 711 712 713 718 714 705 700 698 703 706 709 714 712 712 717 715 715 719 719 715 710 711 718 720 721 724 724 720 722 731 732 719 709 705 703 703 703 709 722 737 743 725 723 761 780 765 756 754 755 757 759 762 763 764 770 773 777 786 794 796 796
783 782 782 782 781 781 780 774 769 766 761 758 758 758 761 759 762 764 762 761 739 703 695 702 703 701 699 703 706 713 718 709 703 699 693 700 704 703 712 711 710 712 706 711 722 716 707 707 711 714 716 719 723 722 715 714 727 727 710 708 709 702 701 703 713 728 732 730 726 724 742 767 773 759 750 754 760 763 766 766 770 778 782 784 788 792 793 796
781 781 781 781 780 781 779 774 772 766 760 760 759 761 762 761 764 764 766 761 721 685 687 694 694 693 693 697 701 707 707 701 705 702 690 697 702 702 709 707 707 710 700 707 721 712 702 706 708 711 715 717 717 714 708 710 721 715 703 707 708 702 701 700 713 729 728 732 741 731 732 761 772 752 745 753 757 767 772 771 778 784 787 790 792 794 795 796
779 779 779 779 778 778 777 776 773 765 762 761 761 763 762 763 765 764 769 755 708 682 689 691 691 693 692 696 700 703 701 698 701 698 691 695 698 700 705 702 701 706 700 700 709 704 698 699 699 705 713 712 709 707 703 708 715 706 700 705 705 704 703 700 713 725 729 744 751 733 730 759 769 750 746 755 758 770 780 780 785 788 789 792 793 795 796 796
777 777 777 777 777 776 774 773 770 766 764 762 762 763 762 766 766 765 768 745 705 690 690 690 693 692 692 697 702 702 701 697 693 693 694 694 696 699 700 697 696 702 701 697 698 695 691 693 693 696 703 702 702 703 700 701 706 704 701 704 708 708 705 704 708 718 739 757 748 729 724 744 763 755 746 751 754 768 784 789 790 790 792 795 795 797 798 798
775 775 775 776 775 774 772 769 766 764 764 763 762 761 764 768 765 764 752 721 703 699 692 694 696 689 691 697 701 701 701 696 688 691 697 694 698 704 700 699 699 702 706 703 700 694 690 695 693 688 692 696 699 701 699 697 700 706 707 709 719 720 717 717 714 724 755 765 743 725 721 734 757 758 744 744 751 764 780 788 791 794 795 796 797 799 800 800
773 773 773 774 773 773 770 766 764 764 763 762 762 763 767 769 765 757 731 705 709 708 692 694 695 688 690 692 695 699 699 696 686 688 695 691 698 704 701 701 700 706 714 709 705 699 692 693 691 687 686 689 697 703 703 700 700 709 712 716 730 738 740 739 735 742 758 754 731 719 726 738 746 747 740 740 754 768 775 781 788 793 796 797 798 800 801 802
771 770 771 771 771 771 769 766 765 765 765 763 763 765 770 768 754 737 721 709 713 710 697 694 691 686 688 689 692 693 696 695 685 685 691 690 697 703 700 695 691 699 708 704 706 707 701 695 690 690 687 684 694 704 708 705 702 709 714 719 730 742 753 754 749 753 756 746 726 714 728 741 746 758 757 747 754 767 773 780 787 792 795 797 799 801 803 804
769 769 768 768 768 768 766 767 767 766 766 764 765 769 771 763 738 719 716 710 705 707 705 700 694 690 688 688 687 686 693 695 682 682 692 693 697 702 701 695 687 689 695 699 704 707 713 709 693 689 691 691 693 694 696 699 702 706 704 708 720 727 740 748 747 751 753 744 727 719 739 757 766 780 775 758 761 768 776 784 787 793 796 796 800 803 805 807
766 766 766 765 765 765 765 766 765 766 766 764 766 770 763 749 730 716 715 714 715 718 708 698 701 702 696 688 682 679 686 690 681 680 689 692 694 697 697 694 687 683 689 699 700 698 708 706 686 681 687 691 695 688 683 696 708 705 697 704 715 713 715 728 732 732 736 738 734 742 766 777 778 781 774 770 776 777 783 788 789 796 798 797 803 805 806 809
764 763 763 762 761 761 762 764 764 766 766 764 768 765 750 735 721 715 715 717 726 725 706 696 701 705 704 695 684 677 679 682 680 680 686 688 688 689 690 688 681 679 685 693 695 695 704 701 684 684 688 685 692 690 681 693 705 704 703 705 703 695 700 723 733 727 732 746 749 761 783 787 784 786 781 780 785 785 788 791 793 798 800 801 805 807 808 809
762 760 759 757 756 757 759 761 763 764 764 765 765 754 738 725 714 712 717 717 720 717 705 702 703 702 706 702 689 679 678 679 678 680 685 686 684 683 685 682 675 676 680 685 689 689 695 699 688 688 695 686 685 689 683 681 689 701 709 701 694 696 699 716 736 741 747 756 754 762 781 786 787 792 788 784 788 792 791 793 796 799 802 805 807 809 810 809
759 758 755 751 750 752 754 758 760 762 763 764 761 748 734 722 713 712 716 713 714 714 707 708 711 707 706 706 693 676 676 683 681 679 683 685 682 678 678 678 674 674 676 679 688 685 686 699 696 687 693 688 682 693 695 684 681 690 695 688 698 718 717 717 733 746 753 755 755 765 776 775 775 783 787 785 787 792 793 794 798 800 803 807 808 810 810 810
758 757 752 744 744 747 750 754 757 760 763 761 756 746 731 720 712 711 715 714 714 713 706 706 712 712 709 709 698 677 672 680 681 678 681 683 679 672 671 675 675 676 676 677 685 684 681 698 705 690 685 686 688 697 703 696 686 684 686 687 696 709 713 716 723 732 743 748 753 771 778 769 763 767 775 778 778 786 792 795 797 800 803 807 809 810 811 811
756 756 747 738 740 744 746 752 754 757 758 753 745 734 722 714 709 707 713 716 709 702 701 706 713 717 713 709 702 690 677 673 676 680 680 679 677 673 668 669 670 672 675 676 681 683 681 693 707 697 686 690 696 697 694 692 692 692 696 701 703 702 703 709 713 714 726 737 746 765 776 768 759 757 760 767 772 778 786 792 796 799 803 806 808 810 811 811
755 754 744 737 739 741 744 751 753 753 751 743 733 724 715 709 705 705 708 707 702 696 698 706 713 716 717 712 706 701 688 672 671 680 682 677 677 676 667 662 664 666 674 680 680 682 684 691 703 705 699 700 698 687 681 682 686 691 695 698 703 705 707 717 723 713 711 723 730 744 766 772 765 758 756 760 767 774 781 789 797 800 803 807 808 809 811 812
754 751 742 739 740 740 743 748 747 745 742 733 723 716 711 706 705 706 704 700 699 698 697 701 708 712 715 713 704 700 695 679 669 677 682 676 673 671 662 657 660 663 672 681 678 676 681 689 703 708 701 696 690 682 679 679 678 685 693 693 695 699 704 718 729 718 711 717 714 724 759 776 768 762 763 764 768 776 783 789 797 802 804 807 808 809 811 813
751 747 742 741 741 739 741 744 742 739 734 724 715 708 704 703 704 704 700 696 696 697 698 699 704 708 708 707 702 697 696 686 670 670 678 675 668 664 658 655 658 661 668 678 677 676 682 692 708 715 704 692 687 683 682 680 681 689 694 691 691 695 696 702 709 708 714 720 716 733 770 781 770 767 770 772 776 782 789 793 797 803 805 807 809 810 813 816
748 746 743 742 740 739 739 738 736 733 726 717 711 706 701 699 700 700 697 695 693 695 699 700 703 706 703 702 701 694 694 694 678 666 672 674 665 660 657 655 657 661 667 673 675 680 690 696 706 720 722 714 705 700 698 694 691 693 693 690 690 689 690 695 698 704 719 721 717 744 777 780 773 773 773 775 782 787 793 796 799 803 807 809 811 813 815 817
749 747 745 743 740 739 737 729 726 725 720 715 710 706 703 699 696 694 691 691 690 691 699 701 700 703 704 703 699 689 687 694 686 670 669 671 664 658 655 655 658 661 664 669 670 677 690 695 700 714 726 726 720 713 708 703 695 691 690 690 688 684 689 698 703 714 729 722 716 744 775 779 777 778 777 779 785 790 795 798 801 804 808 811 813 816 817 817
751 748 744 743 742 741 737 727 724 726 723 719 713 705 703 703 696 689 687 690 694 694 699 702 699 703 707 704 701 694 687 687 686 679 674 670 665 659 654 655 660 661 663 670 673 676 687 694 696 703 708 710 710 702 694 693 695 695 693 690 688 687 690 696 705 718 723 719 729 749 763 776 783 781 780 784 787 793 798 800 804 807 810 813 815 817 818 818
752 747 739 739 740 739 736 728 724 724 720 719 715 704 701 702 697 695 694 695 699 699 700 701 701 704 705 700 698 697 692 689 688 687 684 674 664 660 657 655 659 661 664 672 674 678 690 698 696 697 698 697 695 688 684 689 693 693 692 690 690 692 693 696 705 711 708 719 752 763 754 766 781 780 781 787 789 794 799 802 807 810 812 815 816 817 819 818
750 745 738 735 733 729 727 723 717 715 714 714 713 706 702 699 695 698 701 699 699 701 702 702 700 699 698 695 694 695 696 699 697 693 691 681 669 667 665 659 659 661 664 672 674 676 690 699 698 699 700 696 691 684 680 683 687 687 689 691 692 694 696 698 701 703 706 724 754 763 756 765 779 782 785 789 790 794 799 803 808 810 813 815 816 817 818 818
748 746 739 736 732 724 719 714 709 709 709 709 710 707 702 697 693 695 700 703 704 702 702 703 699 694 690 687 691 697 699 702 703 695 688 682 677 674 670 667 667 665 664 673 675 674 687 699 699 700 703 701 699 692 681 679 686 690 690 689 690 693 699 704 705 708 717 731 744 756 766 775 782 786 789 791 793 797 801 805 809 811 813 814 815 816 817 817
749 748 742 738 733 725 718 714 709 705 703 705 709 706 698 696 698 699 701 706 710 705 701 702 698 691 686 681 686 694 691 691 698 694 684 682 684 678 670 669 672 669 666 673 678 677 690 704 700 700 712 714 707 699 687 683 689 693 695 697 697 700 708 716 720 720 726 737 747 759 775 787 790 792 794 797 799 802 805 808 810 811 812 812 814 817 817 818
747 745 743 741 735 725 721 719 712 704 700 703 706 703 700 702 703 705 704 704 707 706 702 699 694 687 683 680 679 681 681 683 690 690 682 681 680 674 669 667 669 672 670 674 682 684 695 710 706 704 721 724 712 707 701 695 697 705 717 724 721 717 720 722 723 724 730 744 758 767 778 790 795 797 800 803 804 805 808 809 810 812 812 813 815 817 818 821
746 743 740 740 736 728 725 722 711 702 702 702 700 701 706 708 707 710 711 704 699 700 699 695 692 687 685 687 684 681 680 683 686 686 681 677 674 671 669 665 665 671 673 676 686 689 695 712 714 711 722 721 712 719 721 710 712 728 738 739 733 728 729 730 730 730 734 745 756 763 774 788 794 797 801 805 807 809 811 811 813 813 813 815 817 819 821 824